[[{"header":{"parameterUnit":"m.s-1","parameterCategory":1,"la1":30.2991,"la2":30.254,"lo1":-89.0895,"lo2":-89.0444,"dy":0.0017,"dx":0.0017,"nx":28,"ny":28,"refTime":"2025-01-23T09:00:00:Z","depth":0,"parameterNumber":2,"parameterNumberName":"U-component_of_WINDS"},"data":[0,0,0,0,0,0,0,0,0,0,0,0,0,0,0,0,0,0,0,0,0,0,0,0,0,0,0,0,0,0,0,0,0,0,0,0,0,0,0,0,0,0,0,0,0,0,0,0,0,0,0,0,0,0,0,0,0,0,1.1941,1.1941,0,1.1911,1.1911,1.1911,1.19,1.19,1.19,1.19,1.1867,1.1866,1.1865,0,0,0,0,0,0,0,0,0,0,0,0,0,1.1985,1.1984,1.1941,1.1941,1.194,1.1912,1.1911,1.1911,1.19,1.19,1.19,1.19,1.1867,1.1866,1.1865,0,0,0,0,0,0,0,0,0,0,0,0,0,1.1962,1.1984,1.1941,1.1931,1.193,1.1912,1.1911,1.1911,1.19,1.19,1.19,1.19,1.1867,1.1866,1.1865,1.1853,0,0,1.186,1.1859,0,0,0,0,0,0,0,0,1.1963,1.196,1.1933,1.1932,1.1931,1.1909,1.1914,1.1891,1.19,1.1911,1.19,1.19,1.1881,1.1878,1.1872,1.1851,1.185,1.186,1.1859,1.1858,1.1858,0,0,0,0,0,0,0,1.1965,1.1961,1.1929,1.1933,1.1931,1.1928,1.1924,1.191,1.1895,1.191,1.1909,1.1906,1.188,1.1874,1.1871,1.1849,1.186,1.1859,1.1858,1.1857,1.1816,1.1815,0,0,0,0,0,0,1.1968,1.1963,1.193,1.1928,1.1948,1.1927,1.1923,1.1916,1.1895,1.1893,1.1906,1.1906,1.1876,1.1873,1.187,1.1854,1.1858,1.1857,1.1856,1.1816,1.1816,1.1815,0,0,0,0,0,0,1.1969,1.1966,1.1931,1.1945,1.1941,1.1926,1.1918,1.1915,1.1909,1.1892,1.1889,1.1902,1.1876,1.1872,1.1857,1.1853,1.1856,1.1855,1.1816,1.1816,1.1816,1.1823,0,0,0,0,0,0,1.1971,1.1966,1.1962,1.1945,1.194,1.192,1.1918,1.1915,1.1907,1.1906,1.1888,1.1885,1.1876,1.1859,1.1856,1.1851,1.1854,1.1816,1.1816,1.1816,1.1823,1.1822,1.1822,0,0,0,0,0,1.1972,1.1965,1.1962,1.1958,1.1935,1.192,1.1916,1.1907,1.1907,1.1902,1.1891,1.1886,1.1854,1.1858,1.1854,1.1848,1.1817,1.1816,1.1816,1.1823,1.1822,1.1822,0,0,0,0,0,0,1.198,1.1962,1.1959,1.1946,1.1935,1.1918,1.1912,1.1907,1.1894,1.1894,1.1881,1.1877,1.1863,1.1854,1.1859,1.1835,1.1835,1.1833,1.1842,1.1841,1.1841,1.1843,1.1853,0,0,0,0,0,1.1981,1.1971,1.1955,1.1945,1.194,1.1927,1.192,1.1913,1.19,1.1895,1.1883,1.187,1.1857,1.1849,1.1836,1.1821,1.1817,1.1816,1.1815,1.1815,1.1814,1.1805,1.1804,1.1814,1.1814,1.1814,0,0,1.1981,1.197,1.1965,1.1947,1.1937,1.1926,1.1923,1.1911,1.1903,1.1893,1.1878,1.1869,1.1853,1.1839,1.1831,1.1831,1.1811,1.1815,1.1815,1.1814,1.1804,1.1804,1.1803,1.1813,1.1813,1.1814,0,0,1.1977,1.1968,1.1958,1.1949,1.1934,1.1926,1.1923,1.1907,1.1901,1.1886,1.1878,1.1867,1.1846,1.1835,1.1826,1.1817,1.1811,1.1813,1.1812,1.1804,1.1803,1.1802,1.1798,1.1797,1.1812,1.1812,1.1812,0,1.1979,1.1963,1.1954,1.1943,1.1934,1.1926,1.1916,1.1907,1.1888,1.1882,1.1882,1.1854,1.1843,1.1825,1.1823,1.1817,1.1813,1.1815,1.1804,1.1803,1.1802,1.1798,1.1797,1.1812,1.1812,1.1812,1.1812,0,1.1966,1.1955,1.1949,1.1932,1.1923,1.1913,1.1901,1.1893,1.1887,1.1878,1.1862,1.1849,1.1833,1.1828,1.1822,1.1809,1.1809,1.1807,1.1806,1.1802,1.1798,1.1796,1.1813,1.1813,1.1813,1.1813,0,0,1.1965,1.1944,1.1942,1.1934,1.1917,1.1908,1.1897,1.1882,1.1875,1.1862,1.1852,1.1833,1.1831,1.1821,1.1814,1.1806,1.1799,1.1804,1.1804,1.1803,1.1783,1.1785,1.1783,1.1795,1.1795,1.1795,1.1784,0,1.1958,1.1938,1.1929,1.1913,1.1902,1.1894,1.1884,1.1872,1.1863,1.1852,1.1842,1.1829,1.1827,1.1821,1.1813,1.1802,1.1795,1.1802,1.1784,1.1784,1.1788,1.1781,1.1783,1.1773,1.1782,1.1782,1.1782,0,1.1947,1.1935,1.1918,1.1902,1.1898,1.1889,1.1874,1.1864,1.185,1.1844,1.1833,1.1826,1.1812,1.1813,1.1794,1.1799,1.1791,1.1784,1.1784,1.1781,1.1782,1.1778,1.177,1.1769,1.178,1.178,1.178,0,1.1948,1.1928,1.1915,1.1908,1.189,1.1884,1.1875,1.1862,1.1853,1.184,1.1834,1.1819,1.1811,1.1799,1.1788,1.179,1.1769,1.1769,1.1763,1.1763,1.1759,1.1759,1.1749,1.1755,1.1755,1.1755,1.1755,0,1.194,1.193,1.1915,1.1907,1.1894,1.1884,1.1872,1.1863,1.185,1.184,1.1831,1.1821,1.1807,1.1795,1.1786,1.1771,1.1767,1.1761,1.1759,1.1762,1.1762,1.1756,1.1756,1.1754,1.1754,1.1755,1.1755,0,1.1939,1.1928,1.1914,1.1897,1.1893,1.1885,1.187,1.1861,1.1852,1.1839,1.1835,1.182,1.1805,1.1793,1.1773,1.1767,1.1751,1.1749,1.1756,1.1755,1.1749,1.175,1.1734,1.1731,1.1739,1.1739,1.1739,0,1.1934,1.1926,1.1909,1.1902,1.1894,1.1882,1.1874,1.1863,1.1854,1.1837,1.183,1.1815,1.1802,1.1779,1.1765,1.175,1.1747,1.1742,1.1744,1.1747,1.1746,1.1746,1.1745,1.1742,1.1742,1.1742,1.1742,0,1.1928,1.1923,1.1911,1.1898,1.1888,1.1877,1.1865,1.1859,1.1845,1.1836,1.1821,1.1811,1.1791,1.1776,1.1759,1.1749,1.1743,1.1742,1.1739,1.1742,1.1746,1.1743,1.1755,1.1742,1.1742,1.1742,1.1742,1.1742,1.1924,1.1917,1.1903,1.189,1.1881,1.187,1.1861,1.185,1.1838,1.1822,1.1816,1.18,1.1785,1.1762,1.1753,1.174,1.1739,1.1736,1.1735,1.1734,1.1734,1.1749,1.1737,1.1737,1.1737,1.1737,1.1737,0,1.1917,1.1908,1.1896,1.188,1.187,1.1866,1.1852,1.1844,1.183,1.1818,1.1805,1.1788,1.1773,1.1758,1.1742,1.1735,1.1731,1.1731,1.1731,1.1728,1.1736,1.1739,1.1734,1.1734,1.1734,1.1734,1.1734,1.1734,1.1911,1.1898,1.1891,1.1872,1.1863,1.1849,1.1841,1.1831,1.182,1.1802,1.1789,1.178,1.1767,1.1749,1.1735,1.1731,1.1725,1.1725,1.172,1.1728,1.1728,1.1728,1.1732,1.1724,1.1724,1.1714,1.1714,1.1714]},{"header":{"parameterUnit":"m.s-1","parameterCategory":1,"la1":30.2991,"la2":30.254,"lo1":-89.0895,"lo2":-89.0444,"dy":0.0017,"dx":0.0017,"nx":28,"ny":28,"refTime":"2025-01-23T09:00:00:Z","depth":0,"parameterNumber":3,"parameterNumberName":"V-component_of_WINDS"},"data":[0,0,0,0,0,0,0,0,0,0,0,0,0,0,0,0,0,0,0,0,0,0,0,0,0,0,0,0,0,0,0,0,0,0,0,0,0,0,0,0,0,0,0,0,0,0,0,0,0,0,0,0,0,0,0,0,0,0,-3.3594,-3.3596,0,-3.3798,-3.3801,-3.3803,-3.3777,-3.3773,-3.377,-3.3767,-3.3977,-3.3986,-3.3994,0,0,0,0,0,0,0,0,0,0,0,0,0,-3.318,-3.3188,-3.3593,-3.3596,-3.3599,-3.3798,-3.3801,-3.3804,-3.3777,-3.3773,-3.3769,-3.3765,-3.3974,-3.3984,-3.3995,0,0,0,0,0,0,0,0,0,0,0,0,0,-3.337,-3.3191,-3.3593,-3.3609,-3.3613,-3.3798,-3.3801,-3.3804,-3.3778,-3.3773,-3.3768,-3.3763,-3.3971,-3.3983,-3.3996,-3.4178,0,0,-3.4036,-3.4042,0,0,0,0,0,0,0,0,-3.3359,-3.3385,-3.3604,-3.3609,-3.3613,-3.3757,-3.3732,-3.393,-3.3779,-3.3715,-3.3767,-3.3761,-3.3908,-3.3926,-3.3975,-3.4188,-3.4197,-3.4038,-3.4046,-3.4051,-3.4055,0,0,0,0,0,0,0,-3.3346,-3.3376,-3.3674,-3.3608,-3.3613,-3.3607,-3.3628,-3.377,-3.3837,-3.372,-3.3719,-3.3744,-3.3909,-3.3963,-3.398,-3.42,-3.4037,-3.4049,-3.4057,-3.4062,-3.4574,-3.458,0,0,0,0,0,0,-3.3329,-3.3365,-3.3668,-3.3681,-3.3471,-3.3618,-3.3642,-3.3716,-3.3836,-3.3849,-3.3748,-3.3742,-3.3943,-3.3965,-3.3987,-3.421,-3.4051,-3.4063,-3.4071,-3.4568,-3.4575,-3.4582,0,0,0,0,0,0,-3.332,-3.3356,-3.366,-3.3523,-3.3561,-3.3631,-3.3713,-3.3722,-3.3776,-3.3856,-3.3868,-3.379,-3.394,-3.3969,-3.4131,-3.4217,-3.4069,-3.4081,-3.4562,-3.4571,-3.4578,-3.4655,0,0,0,0,0,0,-3.3308,-3.3353,-3.3422,-3.3525,-3.3568,-3.38,-3.3719,-3.373,-3.3799,-3.3793,-3.3899,-3.3912,-3.3938,-3.4112,-3.4144,-3.4232,-3.4091,-3.4554,-3.4566,-3.4576,-3.4645,-3.4665,-3.4682,0,0,0,0,0,-3.3293,-3.3435,-3.3426,-3.3463,-3.3657,-3.3805,-3.383,-3.3857,-3.3805,-3.3876,-3.3928,-3.3909,-3.4202,-3.4129,-3.4165,-3.4258,-3.4549,-3.4562,-3.4575,-3.4637,-3.4661,-3.4682,0,0,0,0,0,0,-3.3341,-3.3449,-3.344,-3.3619,-3.3703,-3.38,-3.389,-3.3882,-3.3983,-3.3973,-3.4002,-3.4026,-3.4191,-3.424,-3.4157,-3.4441,-3.4368,-3.4389,-3.4403,-3.4427,-3.4445,-3.4431,-3.4102,0,0,0,0,0,-3.3373,-3.3484,-3.3572,-3.3722,-3.3764,-3.382,-3.3886,-3.3899,-3.3988,-3.4023,-3.4087,-3.4174,-3.4286,-3.4359,-3.4466,-3.4652,-3.4676,-3.4733,-3.4752,-3.4767,-3.4785,-3.4889,-3.4916,-3.4624,-3.4624,-3.4624,0,0,-3.3439,-3.3511,-3.358,-3.3733,-3.38,-3.3915,-3.385,-3.3975,-3.4061,-3.4042,-3.42,-3.425,-3.4349,-3.4524,-3.4605,-3.457,-3.4871,-3.4783,-3.4794,-3.4805,-3.4905,-3.4933,-3.4957,-3.4633,-3.4631,-3.463,0,0,-3.3618,-3.3684,-3.3816,-3.3885,-3.3987,-3.4023,-3.4055,-3.4154,-3.4187,-3.4346,-3.4335,-3.4437,-3.4629,-3.47,-3.4762,-3.497,-3.4956,-3.5004,-3.5101,-3.5202,-3.5225,-3.5246,-3.5322,-3.5349,-3.5021,-3.5021,-3.5021,0,-3.3688,-3.3861,-3.3886,-3.4013,-3.4081,-3.4069,-3.4205,-3.427,-3.4402,-3.445,-3.4409,-3.465,-3.4716,-3.4909,-3.496,-3.5009,-3.5048,-3.4992,-3.522,-3.5241,-3.526,-3.5334,-3.5362,-3.5026,-3.5026,-3.5025,-3.5025,0,-3.3942,-3.4062,-3.4157,-3.4286,-3.4365,-3.4495,-3.454,-3.4617,-3.4624,-3.4665,-3.4827,-3.4906,-3.5029,-3.5076,-3.5083,-3.5271,-3.5247,-3.5213,-3.5141,-3.5293,-3.5362,-3.539,-3.5034,-3.5032,-3.5031,-3.5029,0,0,-3.4159,-3.4299,-3.4334,-3.4393,-3.4505,-3.4599,-3.4729,-3.485,-3.4916,-3.5007,-3.5118,-3.5281,-3.5251,-3.5321,-3.5336,-3.5424,-3.5587,-3.538,-3.5383,-3.5418,-3.5801,-3.5827,-3.5859,-3.5578,-3.5583,-3.5588,-3.5793,0,-3.4351,-3.4581,-3.4608,-3.4813,-3.4925,-3.4916,-3.503,-3.5111,-3.5153,-3.5255,-3.53,-3.5416,-3.5367,-3.5409,-3.5496,-3.5549,-3.5665,-3.5534,-3.5683,-3.5688,-3.5661,-3.5895,-3.5923,-3.6114,-3.582,-3.5825,-3.5828,0,-3.4606,-3.4705,-3.4922,-3.502,-3.5068,-3.517,-3.5284,-3.5381,-3.5473,-3.5498,-3.5576,-3.558,-3.5716,-3.5637,-3.5825,-3.5735,-3.5798,-3.5833,-3.5841,-3.5858,-3.5769,-3.592,-3.6175,-3.6204,-3.5871,-3.5867,-3.5864,0,-3.4745,-3.4933,-3.5087,-3.5137,-3.5255,-3.5327,-3.5379,-3.5467,-3.5538,-3.5638,-3.5685,-3.5799,-3.5862,-3.595,-3.5985,-3.5924,-3.6172,-3.6096,-3.6198,-3.6197,-3.6252,-3.6248,-3.6523,-3.6288,-3.6288,-3.6287,-3.6287,0,-3.4958,-3.5092,-3.5151,-3.5247,-3.5396,-3.5426,-3.5573,-3.5622,-3.5701,-3.5806,-3.5804,-3.5903,-3.5943,-3.6048,-3.6077,-3.6229,-3.6257,-3.6281,-3.6288,-3.6283,-3.6281,-3.6326,-3.6315,-3.6295,-3.6293,-3.6292,-3.6291,0,-3.514,-3.5185,-3.5353,-3.545,-3.5478,-3.5584,-3.5668,-3.5761,-3.5801,-3.5935,-3.5968,-3.6031,-3.6156,-3.6199,-3.635,-3.6369,-3.6547,-3.6541,-3.6516,-3.6518,-3.6619,-3.661,-3.6934,-3.6979,-3.6712,-3.6715,-3.6717,0,-3.5274,-3.5377,-3.5485,-3.5556,-3.5611,-3.5724,-3.5798,-3.583,-3.5907,-3.6021,-3.61,-3.6224,-3.6324,-3.6524,-3.6584,-3.67,-3.6698,-3.6803,-3.6715,-3.6708,-3.6703,-3.6697,-3.6709,-3.6821,-3.6823,-3.6825,-3.6827,0,-3.5508,-3.5526,-3.5631,-3.5746,-3.5833,-3.5925,-3.6013,-3.6071,-3.6117,-3.6203,-3.633,-3.6409,-3.6563,-3.6687,-3.6805,-3.6859,-3.6853,-3.6854,-3.6885,-3.6882,-3.6865,-3.6878,-3.6564,-3.6847,-3.6845,-3.6844,-3.6843,-3.6842,-3.5672,-3.5764,-3.5855,-3.5973,-3.6043,-3.6126,-3.6219,-3.6271,-3.6378,-3.6506,-3.6518,-3.6656,-3.6747,-3.6906,-3.6966,-3.7075,-3.7046,-3.7089,-3.71,-3.7111,-3.712,-3.6845,-3.7096,-3.7096,-3.7095,-3.7095,-3.7094,0,-3.5909,-3.5967,-3.6075,-3.62,-3.6293,-3.6277,-3.6374,-3.6454,-3.6575,-3.666,-3.676,-3.6907,-3.7027,-3.7096,-3.7217,-3.7291,-3.7291,-3.7321,-3.7318,-3.7331,-3.7138,-3.7101,-3.732,-3.732,-3.732,-3.732,-3.732,-3.7319,-3.6043,-3.6198,-3.6226,-3.6416,-3.6473,-3.6609,-3.6666,-3.6743,-3.6812,-3.6976,-3.7076,-3.712,-3.72,-3.7326,-3.7436,-3.7453,-3.7499,-3.7533,-3.7548,-3.7367,-3.7344,-3.7322,-3.7288,-3.7542,-3.7543,-3.7733,-3.7735,-3.7736]}]]